Simultaneous Nadir Overpasses (SNOs) Predictions

Prediction of SNOs between GOES-17 and AQUA Satellite Orbit:

Table of predicted SNOs for the next 14.0 days since TLE Epoch: 7/9/2022
Index Date Time (GOES-17) GOES-17 Lat,Lon AQUA Lat,Lon Distance(km) Time Diff (sec)
1 07/10/2022 10:44:20 0.04,-137.27 -0.09,-136.66 69.15 80
2 07/12/2022 10:31:45 0.02,-137.28 -0.73,-133.59 418.43 80
3 07/12/2022 22:55:42 -0.03,-137.27 -0.37,-138.75 169.78 80
4 07/14/2022 22:40:26 -0.02,-137.27 0.29,-135.69 179.02 80
5 07/15/2022 11:04:15 0.02,-137.28 0.80,-140.82 402.53 80
6 07/17/2022 10:51:39 0.03,-137.28 0.13,-137.75 53.59 80
7 07/19/2022 10:36:23 0.03,-137.28 -0.55,-134.69 295.24 80
8 07/19/2022 23:00:20 -0.03,-137.27 -0.59,-139.84 293.18 80
9 07/21/2022 22:45:04 -0.02,-137.26 0.10,-136.79 55.04 80
